Location: Central Falls
(41.8900°N, 71.3929°W)
Time: 08:31:16
(UTC+00:00)

Altair - Pass Details

Date: 12 December 2023
Orbit: 1501 x 1682 km, 47.2° (Epoch: 29 February)

Event Time Altitude Azimuth Distance (km) Brightness Sun altitude
Rises 18:23:03 0° 295° (WNW) 4,714 10.1 20.7°
Reaches altitude 10° 18:26:33 10° 286° (WNW) 3,705 9.7 20.4°
Maximum altitude 18:34:21 32° 228° (SW) 2,378 10.1 19.8°
Drops below altitude 10° 18:42:03 10° 170° (S) 3,641 10.4 19.1°
Sets 18:45:29 0° 161° (SSE) 4,620 10.6 18.8°
